Find OneWeb SL0421

NORAD ID: 50496 Int'l Des: 2021-132 Owner: ONEWEBN Country: UK Constellation: oneweb operational
LEOCIRCULARPOLARONEWEB_TYPE

Live Position

Loading 3D Globe...

About OneWeb SL0421

Description loading...

Upcoming Passes

Passes for default location (London). Set your location on the main map for personalized predictions.

Altitude History

Loading altitude history...

Two-Line Element Set

1 50496U 21132AD 26106.93314652 .00000056 00000-0 10960-3 0 9991
2 50496 87.9219 347.6382 0001880 92.9555 267.1793 13.18685074213540
Epoch: Apr 16, 2026 • Age: 12 hours

Current Status

Altitude 1192.3 km
Velocity 7.26 km/s
Sub-Earth Point 2.45°N, 168.61°E
Launch Date Dec 27, 2021
Age 4.3 years
Type internet

Technical Details

Classification Payload
Mass 148.00 kg
Dry Mass 140.00 kg
Total Mass 148.00 kg
Length 1.30 m
Diameter 1.00 m
Span 5.00 m
Shape Trapezoid+2 pan
Manufacturer ONEWUS
Bus Type ARROW
Phase Status In Orbit
Owner/State ONEWEBN/UK

Most Searched